Skip Page Navigation
NASA JPL Caltech
NASA Logo - Jet Propulsion Laboratory + View the NASA Portal
+ Center for Near-Earth Object Studies
JPL Home Earth Solar System Stars & Galaxies Technology
JPL Solar System Dynamics
BODIES ORBITS EPHEMERIDES TOOLS PHYSICAL DATA DISCOVERY FAQ SITE MAP
JPL Small-Body Database Browser
Search: [ help ]  
18168 (2000 PN28)
Classification: Main-belt Asteroid          SPK-ID: 2018168
Ephemeris | Orbit Diagram | Orbital Elements | Mission Design | Physical Parameters | Discovery Circumstances | Close-Approach Data ]

[ show orbit diagram ]
Orbital Elements at Epoch 2459200.5 (2020-Dec-17.0) TDB
Reference: JPL 31 (heliocentric ecliptic J2000)
 Element Value Uncertainty (1-sigma)   Units 
e .1438634549841929 3.5259e-08  
a 2.560509696392789 1.2602e-08 au
q 2.192145924949196 9.0714e-08 au
i 15.40088194163647 3.3021e-06 deg
node 227.4891512485571 1.4455e-05 deg
peri 253.1678880603841 2.0787e-05 deg
M 246.6738367276708 1.9135e-05 deg
tp 2459671.602868923757
(2022-Apr-02.10286892)
8.1657e-05 TDB
period 1496.539086080246
4.10
1.1048e-05
3.025e-08
d
yr
n .2405550268272087 1.7759e-09 deg/d
Q 2.928873467836383 1.4415e-08 au
  Orbit Determination Parameters
   # obs. used (total)      1615  
   data-arc span      14148 days (38.74 yr)  
   first obs. used      1982-05-15  
   last obs. used      2021-02-07  
   planetary ephem.      DE441  
   SB-pert. ephem.      SB441-N16  
   condition code      0  
   norm. resid. RMS      .46476  
   source      ORB  
   producer      Otto Matic  
   solution date      2021-Apr-13 02:24:34  

Additional Information
 Earth MOID = 1.26262 au 
 Jupiter MOID = 2.38529 au 
 T_jup = 3.371 
[ show covariance matrix ]

Ephemeris | Orbit Diagram | Orbital Elements | Mission Design | Physical Parameters | Discovery Circumstances | Close-Approach Data ]

Physical Parameter Table
Parameter Symbol Value Units Sigma Reference Notes
absolute magnitude H 14.11   n/a E2021B10  

18168 (2000 PN28)          Discovered 2000-Aug-04 by JPL/NEAT at Haleakala
Reference: 20001013/Numbers.arcLast Updated: 2004-04-19

[ show close-approach data ]
Alternate Designations
 2000 PN28 = 1982 JN2 = 1998 FY106 
Ephemeris | Orbit Diagram | Orbital Elements | Mission Design | Physical Parameters | Discovery Circumstances | Close-Approach Data ]
ABOUT SSD CREDITS/AWARDS PRIVACY/COPYRIGHT GLOSSARY LINKS
FirstGov 2021-Apr-14 06:06 UT
(server date/time)  
NASA Home Page
Site Manager:   Ryan S. Park
Webmaster  Alan B. Chamberlin